sat.trackr.live / text

‹ back to catalog

KUIPER-00275

NORAD 67793 · 2026-030AF

PAYLOAD ACTIVE UNKNOWN

§ Identity

Operator
Country
US
Launch date
2026-02-12
Launch site
FRGUI
Launch vehicle
Mass (kg)
RCS (m²)

External: N2YO · Heavens-Above · Gunter

§ Orbital elements

Epoch: 2026-09-20T21:54:41.110848Z

Period
97.30 min
Inclination
51.9008°
Eccentricity
0.0000588
Mean motion
14.79926407 rev/d
Perigee alt
629.1 km
Apogee alt
630.0 km
Semi-major
7,007.7 km
B*
2.9916e-4
RAAN
39.8478°
Arg perigee
138.2587°
Mean anomaly
221.8420°
Rev number
3,450

§ Raw data

KUIPER-002751 67793U 26030AF  26263.91297582  .00002060  00000+0  29916-3 0  99922 67793  51.9008  39.8478 0000588 138.2587 221.8420 14.79926407 34501

JSON: /api/v1/satellites/67793 · /tle

For live sub-satellite position, see the globe view (requires WebGL).

§ Visibility from observer

Set your observer location to see the next 7 days of passes ≥ 10°. The values pass through the URL so the page stays shareable.

No JS? Fill the form by hand. The geolocation button needs JavaScript.